Raduga

operational
NORAD ID: 10987 Int'l Des: 1978-073 Owner: GUKOSR Country: SU
HEOCIRCULARGSO

Über Raduga

Beschreibung wird geladen...

Live-Position

3D-Globus wird geladen...

Nächste Überflüge

Höhenverlauf

Altitude vs Time

uPlot chart will show altitude changes over time

Zweizeiliger Elementsatz

1 10987U 78073A 26063.03597378 -.00000364 00000-0 00000+0 0 9992
2 10987 5.0544 279.8470 0011838 33.1126 331.0879 1.00249807118551
Epoch: 4. März 2026 • Age: 17 hours

Aktueller Status

Höhe 35836.7 km
Geschwindigkeit 3.07 km/s
Subsatellitenpunkt -4.48°S, 109.13°E
Startdatum 18. Juli 1978
Alter 47.6 years
Typ other

Technische Details

Klassifizierung Payload
Masse 1965.00 kg
Trockenmasse 1800.00 kg
Gesamtmasse 1965.00 kg
Länge 5.50 m
Durchmesser 2.50 m
Spannweite 9.50 m
Form Step Cyl + 2 Pan
Hersteller NPOPM
Bus-Typ Raduga
Phasenstatus In Orbit
Besitzer/Staat GUKOSR/SU

Große Konstellationen

Loading constellations...